Location: Unspecified
(0.0000°N, 0.0000°E)
Time: 10:05:09
(UTC+00:00)

Explorer 11/Cluster Stage 4 - Pass Details

Date: 01 October 2020
Orbit: 467 x 1258 km, 28.8° (Epoch: 28 October)

Event Time Altitude Azimuth Distance (km) Brightness Sun altitude
Rises 07:45:30 0° 296° (WNW) 4,156 9.8 28.9°
Reaches altitude 10° 07:48:24 10° 294° (WNW) 3,219 9.3 29.6°
Maximum altitude 07:56:39 72° 212° (SSW) 1,289 8.1 31.7°
Drops below altitude 10° 08:04:23 10° 128° (SE) 3,026 10.5 33.6°
Sets 08:07:02 0° 125° (SE) 3,897 10.9 34.3°
